Погода в Очамчыре

Абхазия     42°42′29″N   41°27′58″E
темп.,
°C
ветер,
м/с
пор.,
м/с
влажн.,
%
обл.,
%
осадки,
мм/ч
давл.,
гПа
погр.,
м
4 декабря, сб
сб400:00+8св225916 0.0 102127
03:00+8всв125568 0.0 102027
06:00+8всв225580 0.0 101927
09:00+10св115628 0.0 101927
12:00+14юз00435 0.0 1016156
15:00+15з00520 0.0 101535
18:00+12св2259100 0.0 101423
21:00+11св125152 0.0 101323
5 декабря, вс
вс500:00+11в1148100 0.0 101326
03:00+10в1150100 0.0 101328
06:00+10ю1152100 0.0 101428
09:00+10всв1155100 0.0 101643
12:00+13ссв1247100 0.0 1016136
15:00+13юз005295 0.0 101521
18:00+11ссв115699 0.0 101621
21:00+10ссв115789 0.0 101720
6 декабря, пн
пн600:00+11св225656 0.0 101723
03:00+10всв11618 0.0 101823
06:00+9всв22645 0.0 101825
09:00+11всв12635 0.0 102029
12:00+16ююв11505 0.0 1019221
15:00+16вюв115758 0.0 101825
18:00+13всв22655 0.0 101920
21:00+12св22595 0.0 101932
7 декабря, вт
вт700:00+12св22550 0.0 101932
03:00+12св22530 0.0 101829
06:00+11св22510 0.0 101725
09:00+13всв11500 0.0 101625
12:00+18ю12440 0.0 1014120
15:00+18юв11550 0.0 101221
18:00+14всв22580 0.0 101116
21:00+13всв22503 0.0 100929
8 декабря, ср
ср800:00+12всв22450 0.0 100928
03:00+11всв12450 0.0 100929
06:00+10в22442 0.0 100838
09:00+12в2244100 0.0 100945
12:00+15ю2346100 0.0 100670
15:00+15зюз1146100 0.0 100519
18:00+14ссв3447100 0.0 100844
21:00+14св485797 0.1 1010153